• In Hungary
  • List of Countries
  • For 7 days
  • Water Temperature
  • Satellite Maps
  • Weather Map
  • News
  • Weather Widgets
  • user-avatar
    Login

    Hourly Weather Troick

    Today, 20 July, Friday

    Time Temperature Precipitation Wind Pressure Humidity
    00:00 +28°C° 0 mm 3 mps 744 mmHg 49%
    01:00 +27°C° 0 mm 4 mps 744 mmHg 53%
    02:00 +26°C° 0 mm 3 mps 744 mmHg 55%
    03:00 +26°C° 0 mm 3 mps 744 mmHg 57%
    04:00 +25°C° 0 mm 3 mps 744 mmHg 59%
    05:00 +26°C° 0 mm 4 mps 744 mmHg 57%
    06:00 +27°C° 0 mm 4 mps 744 mmHg 55%
    07:00 +28°C° 0 mm 4 mps 744 mmHg 53%
    08:00 +30°C° 0 mm 4 mps 744 mmHg 47%
    09:00 +32°C° 0 mm 4 mps 744 mmHg 42%
    10:00 +34°C° 0 mm 5 mps 744 mmHg 37%
    11:00 +35°C° 0 mm 4 mps 744 mmHg 34%
    12:00 +36°C° 0 mm 4 mps 744 mmHg 32%
    13:00 +36°C° 0 mm 4 mps 744 mmHg 30%
    14:00 +36°C° 0 mm 4 mps 744 mmHg 29%
    15:00 +37°C° 0 mm 4 mps 744 mmHg 29%
    16:00 +37°C° 0 mm 4 mps 743 mmHg 29%
    17:00 +36°C° 0 mm 4 mps 743 mmHg 31%
    18:00 +35°C° 0 mm 5 mps 743 mmHg 33%
    19:00 +34°C° 0 mm 5 mps 743 mmHg 36%
    20:00 +33°C° 0.2 mm 6 mps 743 mmHg 40%
    21:00 +32°C° 0.2 mm 6 mps 743 mmHg 43%
    22:00 +29°C° 0.2 mm 6 mps 743 mmHg 47%
    23:00 +29°C° 0.3 mm 6 mps 743 mmHg 50%

    Tomorrow, 21 July, Saturday

    Time Temperature Precipitation Wind Pressure Humidity
    00:00 +28°C° 0.3 mm 5 mps 743 mmHg 52%
    01:00 +27°C° 0.3 mm 5 mps 743 mmHg 55%
    02:00 +27°C° 0.1 mm 5 mps 743 mmHg 57%
    03:00 +26°C° 0.1 mm 5 mps 743 mmHg 59%
    04:00 +25°C° 0.1 mm 5 mps 743 mmHg 61%
    05:00 +26°C° 0 mm 5 mps 743 mmHg 61%
    06:00 +26°C° 0 mm 6 mps 743 mmHg 62%
    07:00 +27°C° 0 mm 7 mps 743 mmHg 62%
    08:00 +28°C° 0 mm 7 mps 743 mmHg 57%
    09:00 +29°C° 0 mm 7 mps 743 mmHg 53%
    10:00 +30°C° 0 mm 7 mps 743 mmHg 49%
    11:00 +32°C° 0 mm 6 mps 743 mmHg 46%
    12:00 +33°C° 0 mm 6 mps 743 mmHg 43%
    13:00 +34°C° 0 mm 6 mps 743 mmHg 40%
    14:00 +34°C° 0 mm 6 mps 743 mmHg 40%
    15:00 +34°C° 0 mm 7 mps 743 mmHg 39%
    16:00 +34°C° 0 mm 7 mps 743 mmHg 39%
    17:00 +33°C° 0 mm 7 mps 743 mmHg 43%
    18:00 +32°C° 0 mm 7 mps 743 mmHg 46%
    19:00 +31°C° 0 mm 8 mps 744 mmHg 49%
    20:00 +28°C° 0 mm 8 mps 744 mmHg 53%
    21:00 +27°C° 0 mm 8 mps 744 mmHg 56%
    22:00 +24°C° 0 mm 8 mps 744 mmHg 60%
    23:00 +24°C° 0 mm 8 mps 744 mmHg 62%

    Day after tomorrow, 22 July, Sunday

    Time Temperature Precipitation Wind Pressure Humidity
    00:00 +23°C° 0 mm 8 mps 744 mmHg 64%
    01:00 +22°C° 0 mm 7 mps 744 mmHg 66%
    02:00 +22°C° 0 mm 7 mps 744 mmHg 67%
    03:00 +22°C° 0 mm 6 mps 744 mmHg 69%
    04:00 +21°C° 0 mm 6 mps 744 mmHg 70%
    05:00 +22°C° 0 mm 6 mps 744 mmHg 69%
    06:00 +22°C° 0 mm 7 mps 744 mmHg 68%
    07:00 +22°C° 0 mm 8 mps 744 mmHg 67%
    08:00 +24°C° 0 mm 8 mps 744 mmHg 62%
    09:00 +26°C° 0 mm 8 mps 745 mmHg 58%
    10:00 +27°C° 0 mm 8 mps 745 mmHg 54%
    11:00 +28°C° 0 mm 8 mps 745 mmHg 50%
    12:00 +29°C° 0 mm 8 mps 745 mmHg 47%
    13:00 +31°C° 0 mm 8 mps 745 mmHg 43%
    14:00 +31°C° 0 mm 8 mps 745 mmHg 41%
    15:00 +32°C° 0 mm 8 mps 745 mmHg 39%
    16:00 +32°C° 0 mm 8 mps 745 mmHg 37%
    17:00 +31°C° 0 mm 8 mps 745 mmHg 37%
    18:00 +29°C° 0 mm 8 mps 745 mmHg 36%
    19:00 +28°C° 0 mm 8 mps 745 mmHg 36%
    20:00 +27°C° 0 mm 8 mps 746 mmHg 36%
    21:00 +26°C° 0 mm 8 mps 746 mmHg 36%
    22:00 +24°C° 0 mm 8 mps 746 mmHg 36%
    23:00 +23°C° 0 mm 8 mps 746 mmHg 36%

    23 July, Monday

    Time Temperature Precipitation Wind Pressure Humidity
    00:00 +22°C° 0 mm 8 mps 747 mmHg 36%
    01:00 +22°C° 0 mm 8 mps 747 mmHg 37%
    02:00 +21°C° 0 mm 8 mps 747 mmHg 38%
    03:00 +21°C° 0 mm 8 mps 747 mmHg 40%
    04:00 +20°C° 0 mm 7 mps 747 mmHg 41%
    05:00 +20°C° 0 mm 8 mps 748 mmHg 42%
    06:00 +20°C° 0 mm 8 mps 748 mmHg 43%
    07:00 +21°C° 0 mm 8 mps 748 mmHg 43%
    08:00 +22°C° 0 mm 8 mps 748 mmHg 40%
    09:00 +23°C° 0 mm 9 mps 749 mmHg 37%
    10:00 +26°C° 0 mm 9 mps 749 mmHg 33%
    11:00 +27°C° 0 mm 8 mps 749 mmHg 32%
    12:00 +28°C° 0 mm 8 mps 749 mmHg 30%
    13:00 +28°C° 0 mm 8 mps 749 mmHg 28%
    14:00 +29°C° 0 mm 7 mps 749 mmHg 27%
    15:00 +29°C° 0 mm 7 mps 749 mmHg 27%
    16:00 +29°C° 0 mm 7 mps 749 mmHg 26%
    17:00 +29°C° 0 mm 7 mps 749 mmHg 27%
    18:00 +28°C° 0 mm 6 mps 749 mmHg 29%
    19:00 +27°C° 0 mm 6 mps 749 mmHg 30%
    20:00 +26°C° 0 mm 6 mps 749 mmHg 33%
    21:00 +24°C° 0 mm 6 mps 750 mmHg 35%
    22:00 +22°C° 0 mm 6 mps 750 mmHg 38%
    23:00 +22°C° 0 mm 6 mps 750 mmHg 38%

    24 July, Tuesday

    Time Temperature Precipitation Wind Pressure Humidity
    00:00 +21°C° 0 mm 6 mps 750 mmHg 39%
    01:00 +21°C° 0 mm 6 mps 750 mmHg 39%
    02:00 +20°C° 0 mm 6 mps 750 mmHg 40%
    03:00 +20°C° 0 mm 6 mps 751 mmHg 41%
    04:00 +19°C° 0 mm 6 mps 751 mmHg 42%
    05:00 +19°C° 0 mm 6 mps 751 mmHg 42%
    06:00 +20°C° 0 mm 6 mps 751 mmHg 41%
    07:00 +21°C° 0 mm 6 mps 752 mmHg 41%
    08:00 +22°C° 0 mm 6 mps 752 mmHg 37%
    09:00 +24°C° 0 mm 6 mps 752 mmHg 33%
    10:00 +27°C° 0 mm 6 mps 752 mmHg 29%
    11:00 +28°C° 0 mm 6 mps 752 mmHg 26%
    12:00 +29°C° 0 mm 6 mps 752 mmHg 24%
    13:00 +30°C° 0 mm 6 mps 752 mmHg 21%
    14:00 +30°C° 0 mm 5 mps 751 mmHg 21%
    15:00 +32°C° 0 mm 5 mps 751 mmHg 20%
    16:00 +32°C° 0 mm 5 mps 751 mmHg 19%
    17:00 +32°C° 0 mm 5 mps 751 mmHg 22%
    18:00 +30°C° 0 mm 5 mps 751 mmHg 24%
    19:00 +29°C° 0 mm 4 mps 751 mmHg 26%
    20:00 +28°C° 0 mm 5 mps 751 mmHg 31%
    21:00 +26°C° 0 mm 5 mps 751 mmHg 36%
    22:00 +23°C° 0 mm 5 mps 751 mmHg 41%
    23:00 +23°C° 0 mm 5 mps 751 mmHg 44%

    25 July, Wednesday

    Time Temperature Precipitation Wind Pressure Humidity
    00:00 +22°C° 0 mm 5 mps 752 mmHg 46%
    01:00 +22°C° 0 mm 5 mps 752 mmHg 49%
    02:00 +21°C° 0 mm 5 mps 752 mmHg 51%
    03:00 +21°C° 0 mm 4 mps 752 mmHg 54%
    04:00 +20°C° 0 mm 4 mps 752 mmHg 57%
    05:00 +22°C° 0 mm 4 mps 752 mmHg 55%
    06:00 +23°C° 0 mm 4 mps 752 mmHg 53%
    07:00 +25°C° 0 mm 4 mps 753 mmHg 51%
    08:00 +26°C° 0 mm 4 mps 753 mmHg 45%
    09:00 +28°C° 0 mm 4 mps 753 mmHg 39%
    10:00 +30°C° 0 mm 4 mps 753 mmHg 34%
    11:00 +32°C° 0 mm 4 mps 753 mmHg 31%
    12:00 +33°C° 0 mm 4 mps 752 mmHg 29%
    13:00 +33°C° 0 mm 4 mps 752 mmHg 27%
    14:00 +34°C° 0 mm 4 mps 752 mmHg 26%
    15:00 +34°C° 0 mm 4 mps 752 mmHg 26%
    16:00 +34°C° 0 mm 4 mps 752 mmHg 25%
    17:00 +34°C° 0 mm 4 mps 751 mmHg 28%
    18:00 +33°C° 0 mm 5 mps 751 mmHg 30%
    19:00 +32°C° 0 mm 5 mps 751 mmHg 33%
    20:00 +30°C° 0 mm 4 mps 752 mmHg 37%
    21:00 +28°C° 0 mm 4 mps 752 mmHg 41%
    22:00 +27°C° 0 mm 4 mps 752 mmHg 45%
    23:00 +26°C° 0 mm 4 mps 752 mmHg 47%
    Show more